TimeEST,TemperatureF,Dew PointF,Humidity,Sea Level PressureIn,VisibilityMPH,Wind Direction,Wind SpeedMPH,Gust SpeedMPH,PrecipitationIn,Events,Conditions,WindDirDegrees,DateUTC
12:53 AM,48.9,46.0,90,29.88,8.0,North,3.5,-,0.02,Rain,Light Rain,10,2014-01-11 05:53:00
1:53 AM,50.0,46.0,86,29.84,10.0,WNW,3.5,-,0.00,,Scattered Clouds,300,2014-01-11 06:53:00
2:16 AM,46.9,45.0,93,29.87,1.2,North,3.5,-,N/A,,Clear,360,2014-01-11 07:16:00
2:18 AM,46.0,44.1,93,29.87,10.0,North,3.5,-,N/A,,Partly Cloudy,360,2014-01-11 07:18:00
2:36 AM,46.9,44.1,90,29.86,10.0,North,3.5,-,N/A,,Mostly Cloudy,350,2014-01-11 07:36:00
2:53 AM,48.9,46.0,90,29.81,10.0,Calm,Calm,-,N/A,,Mostly Cloudy,0,2014-01-11 07:53:00
3:13 AM,46.0,44.1,93,29.84,2.5,Calm,Calm,-,N/A,,Overcast,0,2014-01-11 08:13:00
3:24 AM,45.0,43.0,93,29.82,1.5,Calm,Calm,-,N/A,,Overcast,0,2014-01-11 08:24:00
3:51 AM,44.6,42.8,93,29.80,0.8,Calm,Calm,-,N/A,,Overcast,0,2014-01-11 08:51:00
3:53 AM,44.1,42.1,93,29.76,0.5,Calm,Calm,-,N/A,Fog,Fog,0,2014-01-11 08:53:00
4:05 AM,46.0,43.0,89,29.79,1.2,North,3.5,-,N/A,,Scattered Clouds,10,2014-01-11 09:05:00
4:07 AM,46.0,43.0,89,29.78,5.0,North,4.6,-,N/A,,Scattered Clouds,360,2014-01-11 09:07:00
4:53 AM,48.9,46.0,90,29.74,10.0,Calm,Calm,-,N/A,,Mostly Cloudy,0,2014-01-11 09:53:00
5:53 AM,55.9,51.1,84,29.69,10.0,ESE,4.6,-,0.03,Rain,Light Rain,110,2014-01-11 10:53:00
6:53 AM,54.0,50.0,86,29.62,10.0,NNE,3.5,-,0.00,,Scattered Clouds,30,2014-01-11 11:53:00
7:53 AM,61.0,51.1,70,29.61,9.0,SSW,17.3,28.8,0.01,Rain,Rain,210,2014-01-11 12:53:00
8:06 AM,55.9,51.1,84,29.71,2.5,West,24.2,35.7,0.05,Rain,Heavy Rain,270,2014-01-11 13:06:00
8:53 AM,54.0,51.1,90,29.73,2.5,SW,10.4,-,0.29,Rain,Heavy Rain,220,2014-01-11 13:53:00
9:06 AM,55.0,51.1,86,29.77,2.5,SW,16.1,20.7,0.06,Rain-Thunderstorm,Heavy Thunderstorms and Rain,220,2014-01-11 14:06:00
9:46 AM,54.0,51.1,90,29.77,2.5,SW,8.1,-,0.22,Rain,Rain,220,2014-01-11 14:46:00
9:53 AM,54.0,51.1,90,29.75,3.0,SW,10.4,-,0.24,Rain,Heavy Rain,220,2014-01-11 14:53:00
10:53 AM,54.0,51.1,90,29.69,5.0,SSE,5.8,-,0.24,Rain,Rain,160,2014-01-11 15:53:00
11:14 AM,54.0,51.1,90,29.71,8.0,SSW,5.8,-,0.01,Rain,Light Rain,200,2014-01-11 16:14:00
11:53 AM,54.0,51.1,90,29.65,8.0,SW,6.9,-,0.02,Rain,Light Rain,220,2014-01-11 16:53:00
12:53 PM,55.0,51.1,86,29.62,10.0,WSW,12.7,-,0.00,,Overcast,240,2014-01-11 17:53:00
1:37 PM,55.0,50.0,83,29.64,10.0,SW,16.1,-,N/A,,Overcast,220,2014-01-11 18:37:00
1:53 PM,54.0,48.9,83,29.61,10.0,SW,15.0,-,N/A,,Overcast,230,2014-01-11 18:53:00
2:20 PM,55.0,48.9,80,29.63,10.0,SW,9.2,-,N/A,,Overcast,230,2014-01-11 19:20:00
2:53 PM,55.9,48.0,75,29.58,10.0,SW,15.0,-,N/A,,Mostly Cloudy,230,2014-01-11 19:53:00
3:36 PM,57.0,46.9,69,29.61,10.0,SW,19.6,-,N/A,,Mostly Cloudy,230,2014-01-11 20:36:00
3:53 PM,55.9,46.0,69,29.57,10.0,WSW,21.9,-,N/A,,Mostly Cloudy,240,2014-01-11 20:53:00
4:53 PM,55.9,43.0,62,29.57,10.0,WSW,17.3,25.3,N/A,,Scattered Clouds,250,2014-01-11 21:53:00
5:53 PM,52.0,39.9,63,29.58,10.0,WSW,13.8,-,N/A,,Scattered Clouds,240,2014-01-11 22:53:00
6:53 PM,53.1,34.0,48,29.62,10.0,WSW,18.4,-,N/A,,Mostly Cloudy,250,2014-01-11 23:53:00
7:53 PM,51.1,34.0,52,29.67,10.0,West,16.1,20.7,N/A,,Overcast,280,2014-01-12 00:53:00
8:53 PM,50.0,33.1,52,29.71,10.0,West,12.7,24.2,N/A,,Mostly Cloudy,280,2014-01-12 01:53:00
9:53 PM,46.0,30.9,56,29.76,10.0,West,12.7,26.5,0.00,,Mostly Cloudy,280,2014-01-12 02:53:00
10:53 PM,45.0,30.9,58,29.81,10.0,West,11.5,21.9,N/A,,Mostly Cloudy,270,2014-01-12 03:53:00
11:53 PM,43.0,28.9,58,29.85,10.0,West,13.8,-,N/A,,Scattered Clouds,280,2014-01-12 04:53:00